• In Kazakhstan
  • List of Countries
  • For 7 days
  • Water Temperature
  • Satellite Maps
  • Weather Map
  • News
  • Weather Widgets
  • user-avatar
    Login

    Hourly Weather Neuquén

    Today, 21 March, Thursday

    Time Temperature Precipitation Wind Pressure Humidity
    00:00 +16°C° 0 mm 6 mps 736 mmHg 30%
    01:00 +16°C° 0 mm 6 mps 736 mmHg 32%
    02:00 +15°C° 0 mm 6 mps 735 mmHg 32%
    03:00 +15°C° 0 mm 6 mps 735 mmHg 33%
    04:00 +15°C° 0 mm 6 mps 734 mmHg 34%
    05:00 +15°C° 0 mm 7 mps 734 mmHg 36%
    06:00 +16°C° 0 mm 7 mps 734 mmHg 37%
    07:00 +16°C° 0 mm 7 mps 734 mmHg 39%
    08:00 +18°C° 0 mm 7 mps 734 mmHg 36%
    09:00 +20°C° 0 mm 7 mps 734 mmHg 33%
    10:00 +22°C° 0 mm 6 mps 734 mmHg 29%
    11:00 +23°C° 0 mm 5 mps 733 mmHg 26%
    12:00 +25°C° 0 mm 4 mps 733 mmHg 22%
    13:00 +27°C° 0 mm 3 mps 732 mmHg 19%
    14:00 +27°C° 0 mm 3 mps 732 mmHg 18%
    15:00 +27°C° 0 mm 4 mps 731 mmHg 16%
    16:00 +28°C° 0 mm 4 mps 731 mmHg 15%
    17:00 +27°C° 0 mm 4 mps 731 mmHg 17%
    18:00 +26°C° 0 mm 4 mps 732 mmHg 19%
    19:00 +25°C° 0 mm 4 mps 732 mmHg 20%
    20:00 +23°C° 0 mm 6 mps 732 mmHg 25%
    21:00 +22°C° 0 mm 8 mps 733 mmHg 30%
    22:00 +22°C° 0 mm 10 mps 733 mmHg 35%
    23:00 +21°C° 0 mm 9 mps 733 mmHg 38%

    Tomorrow, 22 March, Friday

    Time Temperature Precipitation Wind Pressure Humidity
    00:00 +20°C° 0 mm 8 mps 733 mmHg 42%
    01:00 +18°C° 0 mm 7 mps 733 mmHg 45%
    02:00 +17°C° 0 mm 7 mps 733 mmHg 47%
    03:00 +17°C° 0 mm 7 mps 733 mmHg 48%
    04:00 +16°C° 0 mm 6 mps 733 mmHg 50%
    05:00 +17°C° 0 mm 6 mps 734 mmHg 49%
    06:00 +17°C° 0 mm 6 mps 734 mmHg 48%
    07:00 +17°C° 0 mm 6 mps 734 mmHg 48%
    08:00 +20°C° 0 mm 5 mps 734 mmHg 42%
    09:00 +22°C° 0 mm 4 mps 735 mmHg 37%
    10:00 +24°C° 0 mm 2 mps 735 mmHg 31%
    11:00 +25°C° 0 mm 3 mps 734 mmHg 29%
    12:00 +26°C° 0 mm 3 mps 734 mmHg 26%
    13:00 +27°C° 0 mm 3 mps 733 mmHg 23%
    14:00 +27°C° 0 mm 3 mps 732 mmHg 22%
    15:00 +28°C° 0 mm 3 mps 732 mmHg 20%
    16:00 +28°C° 0 mm 4 mps 731 mmHg 19%
    17:00 +27°C° 0 mm 3 mps 731 mmHg 20%
    18:00 +25°C° 0 mm 2 mps 731 mmHg 22%
    19:00 +24°C° 0 mm 1 mps 731 mmHg 23%
    20:00 +24°C° 0 mm 2 mps 731 mmHg 23%
    21:00 +24°C° 0 mm 2 mps 731 mmHg 24%
    22:00 +22°C° 0 mm 3 mps 731 mmHg 24%
    23:00 +22°C° 0 mm 5 mps 731 mmHg 29%

    Day after tomorrow, 23 March, Saturday

    Time Temperature Precipitation Wind Pressure Humidity
    00:00 +22°C° 0 mm 7 mps 731 mmHg 33%
    01:00 +21°C° 0 mm 10 mps 731 mmHg 38%
    02:00 +21°C° 0 mm 9 mps 731 mmHg 41%
    03:00 +20°C° 0 mm 8 mps 731 mmHg 44%
    04:00 +20°C° 0 mm 7 mps 731 mmHg 48%
    05:00 +19°C° 0 mm 9 mps 731 mmHg 47%
    06:00 +19°C° 0 mm 10 mps 732 mmHg 46%
    07:00 +19°C° 0 mm 11 mps 732 mmHg 46%
    08:00 +22°C° 0 mm 12 mps 732 mmHg 38%
    09:00 +23°C° 0 mm 12 mps 732 mmHg 31%
    10:00 +24°C° 0 mm 12 mps 732 mmHg 24%
    11:00 +26°C° 0 mm 12 mps 732 mmHg 20%
    12:00 +27°C° 0 mm 12 mps 732 mmHg 17%
    13:00 +27°C° 0 mm 11 mps 732 mmHg 14%
    14:00 +27°C° 0 mm 10 mps 732 mmHg 15%
    15:00 +27°C° 0 mm 10 mps 733 mmHg 15%
    16:00 +27°C° 0 mm 9 mps 733 mmHg 15%
    17:00 +26°C° 0 mm 7 mps 733 mmHg 17%
    18:00 +23°C° 0 mm 6 mps 734 mmHg 18%
    19:00 +22°C° 0 mm 4 mps 735 mmHg 20%
    20:00 +21°C° 0 mm 4 mps 735 mmHg 22%
    21:00 +20°C° 0 mm 4 mps 736 mmHg 25%
    22:00 +20°C° 0 mm 4 mps 737 mmHg 28%
    23:00 +19°C° 0 mm 4 mps 737 mmHg 31%

    24 March, Sunday

    Time Temperature Precipitation Wind Pressure Humidity
    00:00 +18°C° 0 mm 3 mps 737 mmHg 33%
    01:00 +17°C° 0 mm 3 mps 737 mmHg 36%
    02:00 +17°C° 0 mm 2 mps 737 mmHg 39%
    03:00 +16°C° 0 mm 2 mps 737 mmHg 43%
    04:00 +15°C° 0 mm 1 mps 737 mmHg 47%
    05:00 +16°C° 0 mm 1 mps 737 mmHg 45%
    06:00 +18°C° 0 mm 1 mps 737 mmHg 44%
    07:00 +18°C° 0 mm 1 mps 738 mmHg 42%
    08:00 +19°C° 0 mm 1 mps 738 mmHg 40%
    09:00 +20°C° 0 mm 1 mps 738 mmHg 37%
    10:00 +21°C° 0 mm 1 mps 737 mmHg 34%
    11:00 +22°C° 0 mm 1 mps 737 mmHg 32%
    12:00 +23°C° 0 mm 1 mps 736 mmHg 29%
    13:00 +24°C° 0 mm 1 mps 736 mmHg 26%
    14:00 +24°C° 0 mm 1 mps 735 mmHg 26%
    15:00 +24°C° 0 mm 1 mps 735 mmHg 25%
    16:00 +25°C° 0 mm 1 mps 734 mmHg 24%
    17:00 +24°C° 0 mm 2 mps 734 mmHg 25%
    18:00 +23°C° 0 mm 2 mps 735 mmHg 27%
    19:00 +21°C° 0 mm 2 mps 735 mmHg 28%
    20:00 +21°C° 0 mm 2 mps 735 mmHg 29%
    21:00 +20°C° 0 mm 2 mps 735 mmHg 31%
    22:00 +19°C° 0 mm 2 mps 736 mmHg 32%
    23:00 +19°C° 0 mm 3 mps 736 mmHg 34%

    25 March, Monday

    Time Temperature Precipitation Wind Pressure Humidity
    00:00 +18°C° 0 mm 4 mps 736 mmHg 37%
    01:00 +17°C° 0 mm 5 mps 736 mmHg 39%
    02:00 +16°C° 0 mm 5 mps 736 mmHg 45%
    03:00 +15°C° 0 mm 4 mps 736 mmHg 51%
    04:00 +14°C° 0 mm 4 mps 736 mmHg 57%
    05:00 +14°C° 0 mm 4 mps 737 mmHg 56%
    06:00 +15°C° 0 mm 4 mps 737 mmHg 55%
    07:00 +15°C° 0 mm 4 mps 738 mmHg 55%
    08:00 +18°C° 0 mm 4 mps 738 mmHg 49%
    09:00 +19°C° 0 mm 4 mps 738 mmHg 43%
    10:00 +21°C° 0 mm 4 mps 738 mmHg 37%
    11:00 +22°C° 0 mm 4 mps 738 mmHg 35%
    12:00 +22°C° 0 mm 4 mps 738 mmHg 32%
    13:00 +24°C° 0 mm 3 mps 737 mmHg 30%
    14:00 +25°C° 0 mm 4 mps 737 mmHg 29%
    15:00 +25°C° 0 mm 4 mps 737 mmHg 28%
    16:00 +25°C° 0 mm 5 mps 737 mmHg 27%
    17:00 +23°C° 0 mm 5 mps 738 mmHg 29%
    18:00 +22°C° 0 mm 5 mps 738 mmHg 30%
    19:00 +21°C° 0 mm 5 mps 739 mmHg 32%
    20:00 +20°C° 0 mm 6 mps 739 mmHg 33%
    21:00 +19°C° 0 mm 6 mps 740 mmHg 34%
    22:00 +17°C° 0 mm 7 mps 741 mmHg 35%
    23:00 +16°C° 0 mm 7 mps 741 mmHg 42%

    26 March, Tuesday

    Time Temperature Precipitation Wind Pressure Humidity
    00:00 +15°C° 0 mm 7 mps 741 mmHg 49%
    01:00 +14°C° 0 mm 7 mps 742 mmHg 56%
    02:00 +13°C° 0 mm 6 mps 742 mmHg 60%
    03:00 +13°C° 0 mm 6 mps 742 mmHg 65%
    04:00 +11°C° 0 mm 6 mps 742 mmHg 69%
    05:00 +11°C° 0 mm 6 mps 743 mmHg 70%
    06:00 +11°C° 0 mm 6 mps 743 mmHg 71%
    07:00 +11°C° 0 mm 6 mps 744 mmHg 72%
    08:00 +13°C° 0 mm 6 mps 744 mmHg 65%
    09:00 +15°C° 0 mm 6 mps 744 mmHg 58%
    10:00 +16°C° 0 mm 6 mps 744 mmHg 52%
    11:00 +17°C° 0 mm 6 mps 743 mmHg 47%
    12:00 +19°C° 0 mm 6 mps 743 mmHg 42%
    13:00 +20°C° 0 mm 6 mps 742 mmHg 37%
    14:00 +20°C° 0 mm 7 mps 742 mmHg 36%
    15:00 +20°C° 0 mm 7 mps 742 mmHg 36%
    16:00 +20°C° 0 mm 7 mps 741 mmHg 36%
    17:00 +18°C° 0 mm 7 mps 741 mmHg 38%
    18:00 +18°C° 0 mm 7 mps 741 mmHg 41%
    19:00 +17°C° 0 mm 7 mps 742 mmHg 43%
    20:00 +16°C° 0 mm 7 mps 742 mmHg 45%
    21:00 +16°C° 0 mm 7 mps 742 mmHg 47%
    22:00 +16°C° 0 mm 8 mps 742 mmHg 49%
    23:00 +16°C° 0 mm 8 mps 741 mmHg 52%
    Show more